FW4125 Weather Reports


Display with metric or nautical units.
time (UTC)temp
F
wind
direction
speed
MPH
gust
MPH
rain 1hr
in
rain 24hr
in
rain mn
in
humidity
%
barometer
mb
20260904084550 80 202 0.0 2.0 0.00 0.00 0.00 62 1087.2
20260904083051 80 191 1.0 5.0 0.00 0.00 0.00 62 1087.2
20260904081552 80 243 0.0 3.0 0.00 0.00 0.00 62 1087.2
20260904080121 80 241 0.0 2.0 0.00 0.00 0.00 61 1087.2
20260904074608 80 241 0.0 2.0 0.00 0.00 0.00 61 1087.2
20260904073102 80 241 0.0 2.0 0.00 0.00 0.00 61 1087.2
20260904071606 80 241 0.0 3.0 0.00 0.00 0.00 60 1087.2
20260904064505 81 192 0.0 1.0 0.00 0.00 0.00 59 1087.2
20260904063007 81 191 0.0 0.0 0.00 0.00 0.00 59 1087.2
20260904061512 81 191 0.0 0.0 0.00 0.00 0.00 58 1087.2
20260904060009 81 194 0.0 3.0 0.00 0.00 0.00 58 1087.2
20260904054511 81 197 0.0 2.0 0.00 0.00 0.00 57 1087.2
20260904053009 81 177 0.0 1.0 0.00 0.00 0.00 56 1087.2
20260904051512 81 173 0.0 2.0 0.00 0.00 0.00 55 1087.2
20260904050027 81 172 0.0 2.0 0.00 0.00 0.00 54 1087.2
20260904044521 81 173 1.0 3.0 0.00 0.00 0.00 54 1087.2
20260904043021 81 180 0.0 5.0 0.00 0.00 0.00 54 1087.2
20260904041524 81 177 0.0 1.0 0.00 0.00 0.00 54 1087.2
20260904040020 82 179 0.0 2.0 0.00 0.00 0.00 54 1087.2
20260904034526 82 177 0.0 2.0 0.00 0.00 0.00 54 1087.2
20260904033028 83 145 0.0 2.0 0.00 0.00 0.00 54 1087.2
20260904031524 83 171 0.0 4.0 0.00 0.00 0.00 53 1087.2
20260904030022 83 177 1.0 3.0 0.00 0.00 0.00 53 1087.2
20260904024528 84 174 0.0 2.0 0.00 0.00 0.00 53 1087.2
20260904023025 84 175 0.0 4.0 0.00 0.00 0.00 52 1087.2
20260904021533 85 164 0.0 5.0 0.00 0.00 0.00 52 1087.2
20260904020038 86 173 0.0 3.0 0.00 0.00 0.00 51 1087.2
20260904014533 86 123 1.0 3.0 0.00 0.00 0.00 48 1087.2
20260904013035 86 183 0.0 3.0 0.00 0.00 0.00 46 1087.2
20260904011538 87 162 1.0 5.0 0.00 0.00 0.00 46 1087.2
20260904010033 87 164 2.0 5.0 0.00 0.00 0.00 46 1087.2
20260904004535 88 171 1.0 4.0 0.00 0.00 0.00 45 1087.2
20260904003039 89 176 1.0 5.0 0.00 0.00 0.00 45 1087.2
20260904001536 90 172 2.0 5.0 0.00 0.00 0.00 44 1087.2
20260904000103 90 162 1.0 5.0 0.00 0.00 0.00 44 1087.2
20260903234543 91 171 1.0 5.0 0.00 0.00 0.00 45 1087.2
20260903233101 91 178 0.0 3.0 0.00 0.00 0.00 45 1087.2
20260903231547 91 143 1.0 4.0 0.00 0.00 0.00 45 1087.2
20260903230104 92 179 0.0 4.0 0.00 0.00 0.00 44 1087.2
20260903224606 93 170 1.0 5.0 0.00 0.00 0.00 43 1087.2
20260903223118 94 309 1.0 3.0 0.00 0.00 0.00 43 1087.2
20260903221551 93 182 1.0 5.0 0.00 0.00 0.00 43 1087.2
20260903220057 93 244 2.0 6.0 0.00 0.00 0.00 43 1087.2
20260903214605 93 156 0.0 5.0 0.00 0.00 0.00 43 1087.2
20260903213111 93 211 1.0 3.0 0.00 0.00 0.00 44 1087.2
20260903211601 93 144 1.0 4.0 0.00 0.00 0.00 46 1087.2
20260903210003 93 217 1.0 5.0 0.00 0.00 0.00 46 1087.2
20260903204602 91 114 1.0 4.0 0.00 0.00 0.00 48 1087.2
20260903203100 90 252 1.0 7.0 0.00 0.00 0.00 49 1087.2
20260903201557 89 132 2.0 5.0 0.00 0.00 0.00 50 1087.2
20260903194602 89 212 1.0 8.0 0.00 0.00 0.00 50 1087.2
20260903193002 89 173 1.0 5.0 0.00 0.00 0.00 51 1087.2
20260903191506 89 187 1.0 5.0 0.00 0.00 0.00 51 1087.2
20260903190009 89 195 2.0 7.0 0.00 0.00 0.00 51 1087.2
20260903184504 89 175 1.0 7.0 0.00 0.00 0.00 51 1087.2
20260903183003 89 259 1.0 6.0 0.00 0.00 0.00 52 937.1
20260903181503 88 156 0.0 4.0 0.00 0.00 0.00 52 937.1
20260903180007 88 169 1.0 4.0 0.00 0.00 0.00 54 937.1
20260903174506 87 177 1.0 5.0 0.00 0.00 0.00 54 937.1
20260903173003 87 171 1.0 4.0 0.00 0.00 0.00 55 937.1
20260903171505 86 223 1.0 4.0 0.00 0.00 0.00 56 937.1
20260903170011 85 203 1.0 4.0 0.00 0.00 0.00 57 937.1
20260903164503 85 247 2.0 5.0 0.00 0.00 0.00 58 937.1
20260903163102 84 239 1.0 6.0 0.00 0.00 0.00 59 937.1
20260903161509 83 248 0.0 5.0 0.00 0.00 0.00 60 937.1
20260903160006 82 171 1.0 4.0 0.00 0.00 0.00 61 937.1
20260903154506 82 198 0.0 3.0 0.00 0.00 0.00 62 937.1
20260903153012 81 185 1.0 3.0 0.00 0.00 0.00 62 686.2
20260903151510 80 179 1.0 3.0 0.00 0.00 0.00 63 686.2
20260903150014 80 180 1.0 3.0 0.00 0.00 0.00 64 686.2
20260903144522 79 172 0.0 4.0 0.00 0.00 0.00 65 686.2
20260903143013 78 170 0.0 2.0 0.00 0.00 0.00 65 686.2
20260903141515 78 170 0.0 2.0 0.00 0.00 0.00 65 686.2
20260903140016 78 171 0.0 3.0 0.00 0.00 0.00 65 686.2
20260903134517 77 173 0.0 0.0 0.00 0.00 0.00 65 686.2
20260903133018 77 173 0.0 1.0 0.00 0.00 0.00 64 686.2
20260903131517 76 173 0.0 0.0 0.00 0.00 0.00 64 686.2
20260903130020 76 173 0.0 0.0 0.00 0.00 0.00 63 686.2
20260903124524 76 173 0.0 0.0 0.00 0.00 0.00 63 686.2
20260903123024 76 173 0.0 0.0 0.00 0.01 0.00 63 686.2
20260903121545 76 173 0.0 0.0 0.00 0.01 0.00 62 686.2
20260903120025 77 173 0.0 0.0 0.00 0.01 0.00 62 686.2
20260903114526 77 173 0.0 0.0 0.00 0.01 0.00 62 686.2
20260903113027 77 173 0.0 0.0 0.00 0.01 0.00 62 686.2
20260903111528 77 170 0.0 0.0 0.00 0.01 0.00 61 686.2
20260903110033 77 171 0.0 0.0 0.00 0.01 0.00 61 686.2
20260903104547 77 171 0.0 0.0 0.00 0.01 0.00 61 686.2
20260903103034 78 171 0.0 0.0 0.00 0.01 0.00 61 686.2
20260903101547 78 171 0.0 0.0 0.00 0.01 0.00 61 686.2
20260903100045 78 171 0.0 0.0 0.00 0.01 0.00 61 686.2
20260903094542 78 171 0.0 0.0 0.00 0.01 0.00 60 686.2
20260903093055 78 172 0.0 0.0 0.00 0.01 0.00 59 686.2
20260903091552 78 179 0.0 0.0 0.00 0.01 0.00 58 686.2
20260903090047 79 179 0.0 0.0 0.00 0.01 0.00 58 686.2